Brookings, OR

4:52 AM PDT on September 21, 2017 (GMT -0700)
Brookings State

Weather History for KBOK - November, 2011

Change the Weather History Date:

Sunday, November 20, 2011

  Actual Average Record
Temperature  
Mean Temperature 46 °F -  
Max Temperature 52 °F 56 °F 67 °F (1936)
Min Temperature 41 °F 43 °F 31 °F (1977)
Degree Days  
Heating Degree Days 18    
Moisture  
Dew Point 49 °F    
Average Humidity 92    
Maximum Humidity 100    
Minimum Humidity 77    
Precipitation  
Precipitation 0.00 in - - ()
Sea Level Pressure  
Sea Level Pressure 29.86 in    
Wind  
Wind Speed 6 mph (East)    
Max Wind Speed 10 mph    
Max Gust Speed -    
Visibility 10 miles    
Events      
Averages and records for this station are not official NWS values.
T = Trace of Precipitation, MM = Missing Value Source: NWS Daily Summary

Daily Weather History Graph

Daily Weather History Graph

Search for Another Location

Airport or City:

Trip Planner

Search our weather history database for the weather conditions in past years. The results will help you decide how hot, cold, wet, or windy it might be!

Date:

Astronomy

Nov. 20, 2011 Rise Set
Actual Time 7:13 AM PST 4:52 PM PST
Civil Twilight 6:42 AM PST 5:22 PM PST
Nautical Twilight 6:08 AM PST 5:56 PM PST
Astronomical Twilight 5:35 AM PST 6:29 PM PST
Moon 1:43 AM PST (11/20) 1:48 PM PST (11/20)
Length of Visible Light 10h 39m
Length of Day
9h 39m
Waning Crescent, 26% of the Moon is Illuminated
Nov 20
Waning Crescent
Nov 24
New
Dec 2
First Quarter
Dec 10
Full
Dec 17
Last Quarter

Hourly Weather History & Observations

Time (PST) Temp. Windchill Dew Point Humidity Pressure Visibility Wind Dir Wind Speed Gust Speed Precip Events Conditions
12:56 AM 43.9 °F 38.8 °F - N/A% 29.73 in 10.0 mi NE 9.2 mph - 0.00 in   Overcast
1:56 AM 45.0 °F 41.8 °F - N/A% 29.72 in 10.0 mi NE 5.8 mph - N/A   Overcast
2:56 AM 45.0 °F 40.1 °F - N/A% 29.73 in 10.0 mi NE 9.2 mph - N/A   Overcast
3:56 AM 45.0 °F 40.1 °F - N/A% 29.73 in 10.0 mi ENE 9.2 mph - N/A   Scattered Clouds
4:56 AM 45.9 °F 40.8 °F - N/A% 29.75 in 10.0 mi NE 10.4 mph - N/A   Overcast
5:56 AM 43.9 °F - - N/A% 29.79 in 10.0 mi Calm Calm - N/A   Overcast
6:56 AM 43.0 °F 40.3 °F - N/A% 29.80 in 10.0 mi Variable 4.6 mph - N/A   Partly Cloudy
8:56 AM 41.0 °F - - N/A% 29.86 in 10.0 mi Calm Calm - N/A   Clear
9:56 AM 46.9 °F - - N/A% 29.88 in 10.0 mi ESE 3.5 mph - N/A   Clear
10:56 AM 50.0 °F - - N/A% 29.90 in 10.0 mi South 3.5 mph - N/A   Clear
11:56 AM 50.9 °F - - N/A% 29.89 in 10.0 mi West 3.5 mph - N/A   Clear
12:56 PM 50.9 °F - 50.9 °F 100% 29.89 in 10.0 mi Variable 6.9 mph - N/A   Clear
1:56 PM 52.0 °F - 45.0 °F 77% 29.88 in 10.0 mi South 8.1 mph - N/A   Clear
2:56 PM 50.9 °F - 50.9 °F 100% 29.90 in 10.0 mi West 4.6 mph - N/A   Clear
3:56 PM 47.8 °F - - N/A% 29.90 in 10.0 mi North 3.5 mph - N/A   Clear
4:56 PM 43.9 °F 42.3 °F - N/A% 29.92 in 10.0 mi NNE 3.5 mph - N/A   Clear
5:56 PM 41.9 °F - - N/A% 29.93 in 10.0 mi Calm Calm - N/A   Clear
6:56 PM 45.0 °F 40.1 °F - N/A% 29.92 in 10.0 mi ENE 9.2 mph - N/A   Clear
7:56 PM 45.9 °F 42.9 °F - N/A% 29.93 in 10.0 mi Variable 5.8 mph - N/A   Clear
8:56 PM 46.9 °F - - N/A% 29.92 in 10.0 mi ESE 6.9 mph - N/A   Partly Cloudy
9:56 PM 46.9 °F - - N/A% 29.95 in 10.0 mi SE 4.6 mph - N/A   Overcast
10:56 PM 46.9 °F - - N/A% 29.96 in 10.0 mi SE 6.9 mph - N/A   Overcast
11:56 PM 46.9 °F - - N/A% 29.97 in 10.0 mi SE 6.9 mph - N/A   Overcast